Date String (YYYY-MM-DD hh:mm:ss) UTC,Instrument flags,Ambient pressure (hPa),Sample flow (lpm),Bypass flow (lpm),Sample temperature (°C),Ambient temperature (°C),ASC tube jacket temperature (°C),LED temperature (°C),Box temperature (°C),Sample RH (%),Span deviation,Mass concentration (μg/m³),Mass concentration (μg/m³),Mass concentration (μg/m³)
DateTimeUTC,F1_M11,P_M11,Q1_M11,Q2_M11,T1_M11,T2_M11,T3_M11,T4_M11,T5_M11,U1_M11,ZSPAN_M11,X2_M11,X0_M11,X1_M11
2023-04-05 16:00:00,,0827.8,5.00,0.00,22.8,21.2,00.0,31.2,24.3,09.4,0001.6,0009.51,0014.12,0008.95
2023-04-05 16:01:00,,0827.8,5.00,0.00,22.8,21.2,00.0,31.2,24.3,09.4,0001.5,0009.49,0013.83,0008.95
2023-04-05 16:02:00,,0827.8,5.01,0.00,22.8,21.2,00.0,31.2,24.3,09.4,0001.5,0009.45,0013.57,0008.93
2023-04-05 16:03:00,,0827.8,5.00,0.00,22.8,21.2,00.0,31.2,24.3,09.5,0001.5,0009.45,0013.47,0008.93
2023-04-05 16:04:00,,0827.8,5.00,0.00,22.8,21.2,00.0,31.2,24.3,09.5,0001.4,0009.48,0013.39,0008.96
2023-04-05 16:05:00,,0827.8,4.99,0.00,22.8,21.2,00.0,31.1,24.3,09.4,0001.3,0009.53,0013.28,0008.98
2023-04-05 16:06:00,,0827.8,4.99,0.00,22.8,21.2,00.0,31.1,24.3,09.4,0001.1,0009.50,0013.18,0008.98
2023-04-05 16:07:00,,0827.9,5.00,0.00,22.8,21.2,00.0,31.1,24.3,09.3,0000.9,0009.47,0013.07,0008.96
2023-04-05 16:08:00,,0828.0,5.01,0.00,22.8,21.2,00.0,31.1,24.3,09.3,0000.9,0009.44,0012.92,0008.93
2023-04-05 16:09:00,,0828.0,4.99,0.00,22.8,21.2,00.0,31.1,24.3,09.3,0001.1,0009.37,0012.77,0008.88
2023-04-05 16:10:00,,0827.9,4.99,0.00,22.8,21.2,00.0,31.1,24.3,09.3,0000.9,0009.36,0012.91,0008.85
2023-04-05 16:11:00,,0827.8,5.02,0.00,22.8,21.2,00.0,31.1,24.3,09.2,0001.0,0009.32,0013.49,0008.82
2023-04-05 16:12:00,,0827.8,5.00,0.00,22.8,21.2,00.0,31.1,24.3,09.3,0001.1,0009.22,0013.31,0008.76
2023-04-05 16:13:00,,0827.9,4.99,0.00,22.7,21.2,00.0,31.1,24.3,09.2,0001.2,0009.18,0013.24,0008.70
2023-04-05 16:14:00,,0828.1,5.02,0.00,22.7,21.2,00.0,31.1,24.3,09.1,0001.1,0009.13,0013.21,0008.64
2023-04-05 16:15:00,,0828.1,5.00,0.00,22.7,21.2,00.0,31.1,24.3,09.1,0000.9,0009.04,0013.08,0008.56
2023-04-05 16:16:00,,0828.0,5.00,0.00,22.7,21.2,00.0,31.1,24.3,09.2,0000.9,0008.94,0013.10,0008.47
2023-04-05 16:17:00,,0827.9,5.01,0.00,22.7,21.2,00.0,31.1,24.3,09.2,0001.1,0008.86,0013.08,0008.40
2023-04-05 16:18:00,,0827.9,5.00,0.00,22.7,21.2,00.0,31.1,24.3,09.2,0001.1,0008.80,0012.95,0008.34
2023-04-05 16:19:00,,0828.0,4.99,0.00,22.7,21.4,00.0,31.1,24.4,09.1,0001.0,0008.74,0012.85,0008.28
2023-04-05 16:20:00,,0828.0,5.02,0.00,22.9,22.7,00.0,31.0,24.8,09.2,0000.8,0008.74,0012.83,0008.26
2023-04-05 16:21:00,,0828.1,4.99,0.00,23.0,23.3,00.0,31.1,25.0,09.2,0001.1,0008.73,0012.78,0008.25
2023-04-05 16:22:00,,0828.1,4.99,0.00,23.0,23.2,00.0,31.1,24.9,09.1,0001.0,0008.67,0012.18,0008.21
2023-04-05 16:23:00,,0828.1,5.00,0.00,23.0,22.9,00.0,31.2,24.8,09.1,0000.7,0008.63,0011.91,0008.16
2023-04-05 16:24:00,,0828.1,5.00,0.00,23.0,22.7,00.0,31.2,24.8,09.1,0000.5,0008.58,0011.85,0008.12
2023-04-05 16:25:00,,0828.1,5.00,0.00,23.0,22.5,00.0,31.2,24.7,09.1,0000.4,0008.53,0012.49,0008.09
2023-04-05 16:26:00,,0828.1,5.00,0.00,23.0,22.2,00.0,31.2,24.7,09.0,0000.5,0008.49,0013.07,0008.05
2023-04-05 16:27:00,,0828.1,5.00,0.00,23.0,22.0,00.0,31.3,24.6,09.0,0000.6,0008.46,0012.90,0008.03
2023-04-05 16:28:00,,0828.1,5.00,0.00,23.0,21.9,00.0,31.3,24.6,09.2,0000.5,0008.44,0012.66,0008.00
2023-04-05 16:29:00,,0828.2,5.00,0.00,23.0,21.8,00.0,31.3,24.6,09.1,0000.4,0008.39,0012.60,0007.94
2023-04-05 16:30:00,,0828.2,5.00,0.00,23.0,21.7,00.0,31.3,24.6,09.0,0000.5,0008.33,0012.53,0007.89
2023-04-05 16:31:00,,0828.2,5.02,0.00,23.0,21.7,00.0,31.3,24.6,09.2,0000.2,0008.24,0012.40,0007.81
2023-04-05 16:32:00,,0828.2,5.00,0.00,23.0,21.7,00.0,31.3,24.6,09.4,-000.0,0008.16,0012.35,0007.73
2023-04-05 16:33:00,,0828.2,4.99,0.00,23.0,21.6,00.0,31.3,24.6,09.1,0000.3,0008.12,0012.41,0007.67
2023-04-05 16:34:00,,0828.2,5.01,0.00,23.0,21.6,00.0,31.3,24.6,09.1,0000.3,0008.08,0013.10,0007.61
2023-04-05 16:35:00,,0828.3,5.01,0.00,23.0,21.6,00.0,31.3,24.6,09.0,0000.3,0008.02,0013.49,0007.55
2023-04-05 16:36:00,,0828.4,4.99,0.00,23.0,21.5,00.0,31.3,24.6,08.9,0000.3,0007.95,0012.73,0007.48
2023-04-05 16:37:00,,0828.3,5.00,0.00,23.0,21.5,00.0,31.3,24.6,09.0,0000.4,0007.88,0011.92,0007.41
2023-04-05 16:38:00,,0828.3,5.00,0.00,23.0,21.5,00.0,31.3,24.5,09.0,0000.3,0007.81,0011.82,0007.36
2023-04-05 16:39:00,,0828.4,5.00,0.00,22.9,21.5,00.0,31.3,24.5,09.1,0000.5,0007.78,0011.87,0007.30
2023-04-05 16:40:00,,0828.3,4.99,0.00,22.9,21.5,00.0,31.3,24.5,09.3,0001.0,0007.79,0012.16,0007.27
2023-04-05 16:41:00,,0828.4,5.00,0.00,22.9,21.5,00.0,31.3,24.5,09.2,0001.3,0007.78,0012.12,0007.26
2023-04-05 16:42:00,,0828.4,5.00,0.00,22.9,21.4,00.0,31.3,24.5,09.3,0001.6,0007.78,0012.17,0007.25
2023-04-05 16:43:00,,0828.4,5.02,0.00,22.9,21.4,00.0,31.3,24.5,09.3,0001.4,0007.77,0012.14,0007.25
2023-04-05 16:44:00,,0828.4,4.99,0.00,22.9,21.4,00.0,31.3,24.5,09.4,0000.9,0007.79,0012.13,0007.25
2023-04-05 16:45:00,,0828.4,5.01,0.00,22.9,21.4,00.0,31.3,24.5,09.2,0001.0,0007.80,0011.54,0007.26
2023-04-05 16:46:00,,0828.4,5.01,0.00,22.9,21.4,00.0,31.3,24.5,09.2,0001.4,0007.81,0011.04,0007.27
2023-04-05 16:47:00,,0828.4,4.99,0.00,22.9,21.4,00.0,31.3,24.5,09.3,0001.7,0007.81,0011.06,0007.27
2023-04-05 16:48:00,,0828.4,5.00,0.00,22.9,21.4,00.0,31.3,24.5,09.3,0001.7,0007.79,0011.60,0007.28
2023-04-05 16:49:00,,0828.4,5.01,0.00,22.9,21.4,00.0,31.3,24.5,09.3,0001.8,0007.81,0012.94,0007.28
2023-04-05 16:50:00,,0828.4,5.00,0.00,22.9,21.4,00.0,31.3,24.5,09.3,0001.7,0007.78,0013.17,0007.28
2023-04-05 16:51:00,,0828.4,4.99,0.00,22.9,21.4,00.0,31.3,24.5,09.3,0001.2,0007.71,0012.85,0007.26
2023-04-05 16:52:00,,0828.4,4.99,0.00,22.9,21.4,00.0,31.3,24.5,09.5,0000.8,0007.67,0012.78,0007.23
2023-04-05 16:53:00,,0828.4,5.01,0.00,22.9,21.4,00.0,31.2,24.5,09.4,0000.4,0007.58,0012.59,0007.18
2023-04-05 16:54:00,,0828.4,5.00,0.00,22.9,21.4,00.0,31.2,24.5,09.5,0000.4,0007.50,0012.48,0007.13
2023-04-05 16:55:00,,0828.4,5.00,0.00,22.9,21.4,00.0,31.2,24.5,09.3,0000.9,0007.42,0012.39,0007.06
2023-04-05 16:56:00,,0828.4,5.01,0.00,22.9,21.4,00.0,31.2,24.5,09.2,0001.1,0007.34,0012.53,0006.98
2023-04-05 16:57:00,,0828.4,5.00,0.00,22.9,21.4,00.0,31.2,24.5,09.5,0000.8,0007.27,0012.90,0006.90
2023-04-05 16:58:00,,0828.4,4.99,0.00,22.9,21.4,00.0,31.2,24.5,09.4,0000.7,0007.23,0012.68,0006.85
2023-04-05 16:59:00,,0828.4,5.00,0.00,22.9,21.4,00.0,31.2,24.5,09.5,0000.3,0007.18,0012.12,0006.79
